Starlink 32180

operational
NORAD ID: 60374 Int'l Des: 2024-138 Owner: SPXS Country: US Constellation: starlink
LEOCIRCULAR

关于 Starlink 32180

正在加载描述...

实时位置

正在加载3D地球...

即将过境

高度历史

Altitude vs Time

uPlot chart will show altitude changes over time

两行轨道根数

1 60374U 24138V 25355.09936669 .00001103 00000-0 49384-4 0 9993
2 60374 53.1629 314.7524 0001366 82.7796 277.3360 15.30193534 78590
Epoch: Dec 21, 2025 • Age: 9 hours

当前状态

高度 494.2 km
速度 7.62 km/s
星下点 -51.98°S, 21.33°W
发射日期 Aug 4, 2024
运行时间 1.3 years
类型 internet

技术详情

分类 Payload
质量 730.00 kg
干质量 700.00 kg
总质量 730.00 kg
长度 0.30 m
直径 4.10 m
跨度 29.00 m
形状 Box + pan
制造商 SPXS
平台类型 Starlink V2M
阶段状态 In Orbit
所有者/国家 SPXS/US

大型星座

Loading constellations...